sat.trackr.live / text

‹ back to catalog

STARLINK-31306

NORAD 58876 · 2024-020A

PAYLOAD ACTIVE UNKNOWN

§ Identity

Operator
Country
US
Launch date
2024-01-29
Launch site
AFWTR
Launch vehicle
Mass (kg)
RCS (m²)

Purposes: comms

External: N2YO · Heavens-Above · Gunter

§ Orbital elements

Epoch: 2026-09-19T08:30:43.563168Z

Period
93.85 min
Inclination
53.1597°
Eccentricity
0.0001093
Mean motion
15.34386491 rev/d
Perigee alt
462.0 km
Apogee alt
463.5 km
Semi-major
6,840.9 km
B*
5.4926e-5
RAAN
139.2133°
Arg perigee
88.6836°
Mean anomaly
271.4292°
Rev number
14,895

§ Raw data

STARLINK-313061 58876U 24020A   26262.35467087  .00001479  00000+0  54926-4 0  99902 58876  53.1597 139.2133 0001093  88.6836 271.4292 15.34386491148958

JSON: /api/v1/satellites/58876 · /tle

For live sub-satellite position, see the globe view (requires WebGL).

§ Visibility from observer

Set your observer location to see the next 7 days of passes ≥ 10°. The values pass through the URL so the page stays shareable.

No JS? Fill the form by hand. The geolocation button needs JavaScript.